Regional Weather Roundup
Issued by NWS

Home | Current Version | Previous Version | Graphics & Text | Print | Product List | Glossary Off
Versions: 1 2 3 4 5 6 7 8 9 10 11 12 13 14 15 16 17 18 19 20 21 22 23 24 25 26 27 28 29 30 31 32 33 34 35 36 37 38 39 40 41 42 43 44 45 46 47 48 49 50

000
ASUS43 KTOP 251659
RWRKS

WEATHER ROUNDUP FOR KANSAS
NATIONAL WEATHER SERVICE GOODLAND KS
1100 AM CST THU DEC 25 2014

NOTE:  "FAIR" INDICATES FEW OR NO CLOUDS BELOW 12,000 FEET WITH NO
SIGNIFICANT WEATHER AND/OR OBSTRUCTIONS TO VISIBILITY.

KSZ001>006-013>018-027>032-041>047-251800-
NORTHWEST KANSAS

CITY           SKY/WX    TMP DP  RH WIND       PRES   REMARKS
GOODLAND       SUNNY     38  26  62 NW8       29.44R
HAYS           SUNNY     43  21  42 S21G26    29.49R
HILL CITY      SUNNY     40  22  48 SW8       29.47R
RUSSELL        SUNNY     42  25  50 S20G31    29.50R
$$

KSZ061>065-074>080-084>089-251800-
SOUTHWEST KANSAS

CITY           SKY/WX    TMP DP  RH WIND       PRES   REMARKS
DODGE CITY     PTSUNNY   47  21  35 SW21      29.53R
ELKHART          N/A     58  24  27 SW17        N/A
GARDEN CITY    SUNNY     49  24  37 SW12      29.50R
GREAT BEND     MOSUNNY   43  27  52 S26G37    29.52F
LIBERAL        PTSUNNY   46  23  39 SW15G21   29.55R
$$

KSZ066>073-081>083-090>101-251800-
SOUTHEAST KANSAS

CITY           SKY/WX    TMP DP  RH WIND       PRES   REMARKS
CHANUTE        SUNNY     47  30  51 S24G31    29.81F
COFFEYVILLE    SUNNY     49  29  46 S29G39    29.85F
HUTCHINSON     MOSUNNY   46  27  47 S29G36    29.61F
NEWTON         SUNNY     45  25  45 S29G38    29.65F
PARSONS        SUNNY     49  29  46 S18G30    29.84F
WICHITA INTL   MOSUNNY   47  27  45 S21G32    29.66F
WICHITA JABRA  MOSUNNY   46  26  45 S25G40    29.66S
WINFIELD       PTSUNNY   48  27  44 S28G38    29.73S
$$

KSZ007>012-019>026-033>040-048>060-102>105-251800-
NORTHEAST KANSAS

CITY           SKY/WX    TMP DP  RH WIND       PRES   REMARKS
CONCORDIA      SUNNY     43  27  53 S22G28    29.58S
EMPORIA        SUNNY     44  29  55 S25G41    29.70F
LAWRENCE       SUNNY     45  29  53 S20G25    29.78F
MANHATTAN      SUNNY     47  28  47 S21G30    29.64F
OLATHE IND     SUNNY     44  31  60 S20G30    29.80S
OLATHE EXE     SUNNY     44  30  57 S20G32    29.80F
SALINA         SUNNY     45  28  51 S23G37    29.59S
TOPEKA BILLARD SUNNY     47  28  47 S17G26    29.75F
TOPEKA FORBES  SUNNY     46  28  49 S20G29    29.73F
$$



USA.gov is the U.S. government's official web portal to all federal, state and local government web resources and services.